Wetbulb
60.42 60.88 61.08 61.24 61.39 61.32 61.33 61.44 61.50 61.53 61.75 62.32 62.71 62.71 63.21 63.20 62.62 58.30 53.59 56.79 61.66 66.41 64.04 57.90 57.18 55.42 56.26 55.81 58.74 60.22 49.42 46.06 47.89 48.75 50.80 56.47 55.80 59.06 60.01 58.96 58.09 60.62 62.73 65.38 69.41
60.49 60.85 60.97 61.11 61.08 60.99 60.99 61.00 61.13 61.31 61.58 62.04 62.39 62.48 63.09 62.66 58.55 55.86 58.97 61.76 64.94 66.49 58.22 55.53 53.29 54.36 52.35 51.57 54.40 53.15 48.30 46.40 51.29 52.19 51.71 53.91 54.88 55.86 55.18 57.01 57.47 58.34 62.94 66.11 69.01
60.41 60.53 60.43 60.28 60.32 60.22 60.27 60.35 60.67 61.04 61.65 62.12 62.03 62.05 62.71 61.77 53.84 54.47 62.17 63.28 65.66 62.34 58.97 56.97 54.70 53.03 49.99 50.92 49.39 50.23 46.15 48.31 49.98 52.20 53.02 51.94 52.01 53.82 52.47 51.74 55.20 56.27 57.99 64.80 67.05
60.30 60.41 60.36 60.21 60.22 60.26 60.23 60.31 60.59 60.97 61.80 61.95 61.74 62.11 62.55 58.62 46.06 56.23 63.67 64.30 63.22 60.14 57.96 55.81 54.70 50.79 49.34 47.80 49.41 45.84 48.14 49.09 49.58 50.09 49.17 48.26 50.06 48.47 49.38 50.64 54.19 55.88 56.05 60.14 64.87
60.29 60.07 59.71 59.55 59.54 59.60 59.92 60.40 60.91 61.40 61.53 61.51 61.54 62.14 60.60 53.85 53.35 57.44 66.15 62.48 59.42 58.55 56.55 55.12 53.24 51.82 48.74 49.51 49.26 47.14 49.03 49.64 51.01 50.95 51.13 51.86 50.19 50.16 49.94 52.10 53.30 53.68 55.75 58.35 62.23
59.85 59.42 59.09 59.09 59.22 59.75 60.23 60.66 61.24 61.39 61.25 61.09 61.42 61.36 56.86 49.69 57.63 58.29 58.39 58.09 58.39 57.87 56.17 56.08 53.79 53.64 50.72 49.78 48.81 50.12 50.21 50.53 51.04 51.05 51.12 49.27 50.27 48.73 50.57 51.91 51.80 52.41 53.18 54.69 57.61
59.05 59.00 58.97 58.87 59.15 59.81 60.37 60.66 60.94 60.90 60.75 60.80 61.20 59.97 55.07 53.15 59.08 59.37 57.88 57.59 58.18 57.81 55.37 56.46 56.19 53.68 52.76 49.53 51.25 50.42 47.20 49.72 49.90 50.29 49.62 49.25 47.28 47.75 51.07 52.51 51.38 51.85 53.39 53.64 58.52
58.84 58.67 58.61 59.10 59.14 59.82 59.93 60.61 61.33 60.55 60.27 60.44 60.62 59.33 52.30 59.41 60.93 58.44 58.85 58.02 58.74 58.78 57.42 57.58 57.07 53.72 52.02 52.90 50.32 47.51 47.47 44.55 49.42 49.70 49.49 48.60 43.58 49.77 52.61 51.78 51.83 52.88 53.49 53.61 53.63
58.61 58.43 58.41 58.43 59.00 59.60 59.19 61.08 61.86 61.08 60.71 60.54 59.39 56.64 50.67 59.93 55.81 57.97 58.77 56.30 57.04 57.35 57.71 56.80 55.57 52.05 51.54 48.38 47.03 46.96 42.22 43.62 45.50 50.16 48.62 47.87 45.22 50.28 53.39 52.62 51.79 52.65 53.18 53.43 54.16
58.60 58.91 58.57 58.59 58.75 59.38 58.49 59.68 60.56 59.10 60.15 59.96 57.46 52.27 53.57 52.08 55.88 56.90 58.69 57.45 55.46 54.62 53.30 52.86 52.95 49.71 49.91 46.52 39.38 41.26 42.21 43.51 43.62 47.51 48.31 46.69 46.36 49.85 51.79 51.26 51.42 52.55 53.00 53.29 53.22
58.85 59.06 58.50 58.56 58.16 58.28 57.06 55.18 52.96 51.23 54.64 50.83 51.52 50.88 52.52 56.72 57.01 55.31 57.35 55.98 54.84 52.68 46.98 50.15 47.54 43.71 45.23 46.54 46.33 45.11 43.63 42.92 45.85 48.14 46.05 45.61 45.40 46.95 49.59 49.55 48.79 50.59 52.14 52.56 52.23
58.76 59.03 58.39 58.27 57.84 55.10 56.84 52.56 51.84 53.00 49.80 52.79 53.18 53.72 54.84 55.91 51.42 53.94 57.73 51.74 50.93 46.83 48.61 46.95 44.42 46.55 47.48 47.06 45.57 44.88 43.11 43.37 45.75 47.11 46.22 44.67 43.60 46.05 49.25 49.46 50.22 51.08 51.88 52.84 54.30
58.68 58.89 58.13 57.36 57.06 56.34 54.73 51.95 55.21 55.70 50.50 51.16 54.17 53.76 53.78 54.58 50.59 51.97 53.37 51.90 49.00 46.37 45.59 43.36 44.92 46.71 45.15 45.23 43.51 44.11 42.10 42.19 42.67 45.86 46.32 44.30 42.19 44.19 48.46 50.03 50.44 51.29 53.32 54.13 54.42
58.76 58.74 57.61 56.42 54.89 54.58 52.90 55.13 56.56 57.03 46.68 46.72 49.93 52.23 52.89 52.68 49.28 53.58 53.02 51.46 49.10 44.97 45.39 44.23 45.42 43.45 44.61 43.71 44.33 41.23 45.34 44.66 43.65 42.20 37.96 43.91 37.35 42.43 45.40 46.06 47.62 49.88 50.92 53.09 55.03
58.64 58.34 57.03 54.02 54.87 52.82 54.08 57.38 57.63 56.01 38.91 47.43 49.25 53.36 51.63 49.62 49.52 50.10 51.73 51.05 46.25 45.71 45.11 42.02 42.67 42.36 43.01 42.99 45.07 42.81 46.60 44.63 43.37 42.46 41.13 40.90 37.04 40.17 44.00 39.93 43.31 46.78 49.22 52.10 54.89
58.61 58.06 56.44 53.97 55.68 54.79 57.03 56.97 56.16 45.57 38.17 44.84 48.11 45.39 46.56 47.54 47.48 49.42 49.16 50.45 48.13 44.07 43.86 43.23 45.38 44.53 45.27 45.86 45.41 47.30 45.74 43.47 43.02 42.09 37.77 38.64 36.31 37.84 37.53 39.35 41.63 45.79 48.90 49.72 52.76
58.16 57.48 54.45 54.42 52.40 56.50 57.10 54.53 44.89 40.46 45.46 43.61 43.62 44.23 44.04 43.76 44.82 45.26 44.83 43.91 41.88 39.26 39.67 42.16 41.74 44.34 45.51 43.68 46.22 46.19 44.29 39.65 37.63 37.07 34.77 40.60 38.25 37.75 40.96 42.45 43.98 47.58 47.63 49.14 51.46
57.16 53.10 52.91 55.05 57.10 56.49 55.11 47.55 39.90 42.41 43.20 45.05 43.33 43.40 42.41 43.27 43.12 43.54 43.48 42.68 43.82 42.17 40.27 37.26 36.57 41.42 44.36 42.92 41.22 42.62 42.72 37.22 30.62 31.82 35.09 40.64 35.31 38.72 42.38 46.49 49.38 49.28 48.63 48.51 49.33
52.18 51.17 52.06 54.81 55.86 55.67 50.06 43.66 43.80 43.98 45.55 43.31 42.16 41.04 40.97 41.87 42.89 42.52 42.28 42.04 42.55 43.20 38.06 37.55 37.30 42.93 43.24 45.10 45.17 41.94 39.68 43.55 36.25 36.62 35.00 38.49 40.90 43.26 44.92 47.18 47.75 47.96 47.21 46.48 47.55
52.77 47.99 49.17 55.19 56.24 52.76 47.78 43.99 44.38 46.02 44.76 43.51 40.25 41.65 39.59 40.40 41.01 41.24 40.58 43.11 42.15 43.43 44.15 40.67 35.67 40.68 41.79 45.58 44.76 43.72 44.82 38.65 40.95 31.83 30.07 35.70 36.22 36.11 41.54 43.78 46.07 47.21 45.54 45.10 46.42
49.18 43.26 50.14 55.59 52.77 49.41 44.04 44.90 44.79 46.69 45.94 42.89 41.58 40.73 41.00 40.86 41.17 40.32 40.37 42.42 43.72 42.03 43.59 42.00 38.72 38.80 40.73 39.66 39.17 41.61 40.72 40.61 41.38 39.44 33.53 32.30 35.36 42.94 42.71 44.16 44.71 46.27 46.68 44.77 44.45
45.41 39.14 50.53 51.81 45.46 46.17 44.35 44.84 45.78 45.12 45.78 44.27 44.18 42.86 42.36 42.42 40.57 40.24 40.18 42.65 43.87 42.46 38.88 41.98 39.46 35.69 37.19 41.19 41.82 41.71 39.91 39.34 37.20 33.74 39.64 37.07 37.40 44.99 44.91 45.07 45.88 46.13 46.43 45.12 44.73
42.35 42.00 50.05 49.16 41.00 42.57 44.26 43.24 45.26 43.51 43.99 43.70 42.98 44.17 43.86 42.16 39.57 41.28 41.88 43.72 42.95 41.83 40.59 42.39 38.61 34.86 36.06 39.65 40.62 38.49 39.31 39.20 39.53 40.41 35.94 34.71 37.27 44.42 45.42 45.82 45.67 45.52 47.07 44.55 45.72
42.26 38.64 44.48 46.75 45.61 43.76 43.34 42.70 42.20 44.43 44.06 44.34 43.49 44.26 41.93 40.13 42.32 40.53 41.17 42.82 42.65 43.07 44.84 44.01 39.79 37.03 34.38 36.13 37.62 35.90 37.24 38.57 37.99 36.84 36.66 37.64 38.15 42.23 43.27 44.53 45.70 44.41 46.62 45.88 46.07
42.56 40.58 45.10 40.00 41.59 42.54 44.57 44.50 41.81 39.98 43.58 43.90 40.93 42.15 40.80 37.65 38.56 39.67 41.58 41.53 40.28 42.23 41.25 42.20 36.55 37.06 37.93 37.91 37.36 36.47 35.95 37.27 36.29 39.86 36.30 37.46 37.16 41.48 44.02 45.31 45.92 46.42 45.95 46.52 46.22
42.15 40.19 40.93 43.35 42.77 42.06 42.02 41.96 42.19 42.03 42.84 41.72 41.10 42.50 41.90 40.18 41.30 39.78 41.42 40.85 40.76 40.28 39.58 38.57 36.08 35.54 35.82 37.53 37.25 36.03 39.06 39.41 39.24 39.53 39.27 39.42 38.35 44.65 46.09 46.88 46.10 46.52 46.67 46.06 45.28
45.29 44.00 44.37 41.37 41.59 40.33 40.95 42.56 42.50 44.03 44.10 45.58 44.62 42.40 40.38 43.18 45.00 44.76 45.01 43.99 42.93 40.27 39.01 37.64 37.52 35.30 34.68 36.77 37.88 36.55 39.66 40.10 40.72 41.30 39.87 37.15 42.13 45.66 44.50 45.14 46.26 46.39 46.91 46.38 45.98
MSLP
1019.80 1019.60 1019.32 1018.95 1018.68 1018.28 1018.11 1017.85 1017.49 1017.12 1017.01 1016.64 1016.37 1016.14 1015.73 1015.62 1014.94 1014.57 1013.92 1014.29 1014.01 1013.81 1013.56 1013.17 1012.84 1012.72 1012.53 1012.32 1012.29 1012.12 1011.09 1009.90 1009.66 1009.50 1009.03 1009.01 1008.90 1008.91 1009.13 1008.66 1008.62 1008.50 1008.48 1009.11 1009.82
1019.65 1019.57 1019.10 1018.75 1018.52 1018.14 1017.92 1017.64 1017.17 1017.10 1016.88 1016.61 1016.15 1015.89 1015.99 1015.67 1014.65 1013.82 1014.18 1014.15 1014.04 1013.81 1013.18 1012.89 1012.63 1012.62 1012.28 1012.31 1012.32 1011.67 1011.00 1010.27 1010.48 1010.22 1009.83 1009.55 1009.41 1009.07 1009.25 1008.61 1008.36 1008.47 1008.83 1009.52 1010.10
1019.71 1019.28 1019.02 1018.61 1018.35 1018.04 1017.77 1017.30 1017.17 1017.01 1016.75 1016.21 1016.06 1016.18 1015.93 1015.42 1014.21 1013.77 1014.03 1014.07 1013.94 1013.71 1013.46 1013.29 1013.02 1012.67 1012.36 1012.50 1012.43 1012.08 1011.20 1011.09 1010.84 1010.62 1010.46 1010.15 1009.84 1009.62 1009.18 1008.74 1008.61 1008.50 1008.47 1009.58 1009.97
1019.48 1019.26 1018.77 1018.41 1018.22 1017.93 1017.49 1017.17 1017.04 1016.83 1016.43 1016.14 1016.20 1016.03 1015.55 1014.81 1013.89 1013.73 1014.00 1014.02 1013.87 1013.55 1013.23 1013.01 1012.71 1012.47 1012.34 1012.24 1012.52 1012.16 1011.80 1011.62 1011.20 1011.03 1010.97 1010.49 1010.08 1009.60 1009.34 1009.00 1008.88 1008.65 1008.52 1008.75 1009.62
1019.28 1019.01 1018.51 1018.38 1018.08 1017.67 1017.27 1016.95 1016.80 1016.55 1016.20 1016.16 1016.02 1015.66 1015.22 1013.93 1013.52 1013.67 1013.95 1013.87 1013.58 1013.48 1013.25 1013.10 1012.71 1012.68 1012.28 1012.42 1012.48 1012.07 1011.75 1011.71 1011.37 1011.29 1011.09 1010.75 1010.21 1009.73 1009.19 1008.93 1008.71 1008.49 1008.51 1008.63 1008.98
1019.15 1018.84 1018.46 1018.29 1017.88 1017.36 1016.95 1016.63 1016.41 1016.15 1016.08 1016.08 1015.78 1015.49 1014.59 1013.54 1013.54 1013.65 1013.78 1013.74 1013.63 1013.41 1013.35 1013.22 1013.04 1013.04 1012.61 1012.50 1012.39 1012.24 1012.03 1011.54 1011.28 1011.02 1010.80 1010.61 1009.92 1009.84 1008.80 1008.94 1008.47 1008.43 1008.37 1008.26 1008.33
1019.07 1018.59 1018.39 1018.15 1017.58 1017.08 1016.63 1016.18 1015.86 1015.79 1015.86 1015.83 1015.63 1015.14 1014.01 1013.54 1013.44 1013.55 1013.75 1013.61 1013.70 1013.56 1013.31 1013.42 1013.37 1013.11 1012.76 1012.27 1012.60 1012.22 1011.69 1010.98 1010.74 1010.68 1010.64 1010.58 1009.60 1009.13 1008.82 1008.76 1008.39 1008.07 1007.88 1008.15 1007.97
1018.88 1018.50 1018.26 1017.73 1017.27 1016.75 1016.30 1015.98 1015.63 1015.57 1015.65 1015.65 1015.56 1014.75 1013.44 1013.51 1013.46 1013.60 1013.61 1013.45 1013.70 1013.67 1013.53 1013.59 1013.56 1013.24 1012.87 1012.53 1012.20 1011.75 1011.58 1010.63 1010.44 1010.79 1010.57 1010.77 1009.04 1008.75 1008.97 1008.94 1008.46 1008.12 1007.63 1007.85 1007.89
1018.81 1018.59 1018.02 1017.47 1017.10 1016.49 1016.14 1016.01 1015.75 1015.64 1015.63 1015.57 1015.20 1014.32 1013.26 1013.54 1013.45 1013.54 1013.55 1013.32 1013.47 1013.55 1013.58 1013.57 1013.43 1013.11 1012.79 1012.02 1011.18 1011.44 1010.92 1010.80 1010.57 1010.71 1010.93 1010.65 1009.41 1009.09 1009.12 1008.83 1008.49 1008.13 1007.64 1007.42 1007.48
1018.79 1018.51 1017.94 1017.38 1016.87 1016.33 1016.00 1015.90 1015.77 1015.57 1015.49 1015.31 1015.00 1014.53 1013.45 1013.51 1013.59 1013.64 1013.48 1013.46 1013.21 1013.28 1013.30 1013.18 1013.03 1012.55 1012.15 1011.79 1011.39 1011.32 1011.01 1010.99 1010.68 1010.62 1010.60 1010.31 1009.81 1009.58 1009.52 1009.29 1008.71 1008.23 1007.69 1007.45 1007.28
1018.74 1018.34 1017.77 1017.30 1016.81 1016.23 1015.42 1015.30 1015.84 1015.66 1014.87 1015.03 1014.76 1014.33 1013.88 1013.77 1013.88 1013.36 1013.37 1013.16 1013.10 1012.91 1012.71 1013.08 1012.50 1012.25 1012.41 1012.53 1012.38 1012.01 1011.52 1010.95 1010.76 1010.93 1011.13 1010.47 1010.31 1010.03 1010.24 1009.63 1009.25 1008.77 1008.11 1007.62 1007.61
1018.68 1018.20 1017.71 1017.30 1016.75 1016.17 1015.45 1015.67 1016.87 1017.25 1015.88 1015.21 1014.89 1014.60 1014.35 1014.30 1013.57 1013.24 1013.19 1013.00 1012.94 1012.77 1012.93 1012.84 1012.46 1012.81 1012.91 1012.65 1012.36 1011.75 1011.36 1010.92 1010.95 1011.38 1011.31 1011.09 1010.56 1010.71 1010.41 1010.25 1010.15 1009.69 1009.12 1008.60 1008.03
1018.61 1018.14 1017.61 1017.08 1016.59 1016.12 1016.12 1016.89 1017.19 1017.04 1015.69 1015.02 1014.53 1014.15 1014.09 1014.20 1013.62 1013.37 1013.50 1013.29 1013.13 1012.95 1013.05 1012.85 1012.86 1013.17 1012.94 1012.38 1012.03 1011.48 1011.62 1011.64 1011.58 1011.40 1011.59 1011.11 1010.44 1010.42 1010.40 1010.63 1010.51 1010.35 1009.63 1008.89 1008.35
1018.56 1018.16 1017.50 1016.85 1016.74 1016.68 1016.56 1017.13 1017.11 1016.86 1015.31 1014.73 1014.23 1014.03 1013.99 1013.93 1013.73 1013.85 1013.93 1013.94 1013.31 1013.27 1013.29 1013.10 1013.37 1013.31 1012.87 1012.34 1012.57 1011.60 1012.03 1011.97 1011.71 1011.43 1011.12 1011.83 1010.21 1010.20 1010.93 1011.32 1011.53 1010.83 1010.42 1009.47 1008.60
1018.56 1018.19 1017.73 1017.01 1016.52 1016.56 1017.01 1017.01 1016.92 1016.59 1014.67 1014.68 1014.04 1014.12 1014.01 1013.89 1014.08 1013.81 1014.26 1013.59 1013.66 1013.59 1013.90 1013.28 1013.42 1013.40 1013.02 1012.69 1012.91 1012.04 1012.34 1012.05 1011.92 1011.63 1011.54 1011.54 1011.75 1011.22 1012.38 1012.48 1012.11 1011.71 1011.09 1010.33 1009.41
1018.36 1018.15 1017.97 1017.09 1016.63 1016.86 1016.95 1016.90 1016.54 1015.81 1014.10 1014.20 1014.03 1014.12 1013.97 1014.15 1014.25 1014.15 1014.00 1014.06 1014.41 1014.06 1014.06 1013.85 1014.16 1013.99 1013.42 1012.96 1013.01 1012.69 1012.23 1012.30 1012.23 1011.87 1010.87 1012.32 1012.99 1012.11 1013.90 1014.34 1013.47 1012.58 1011.81 1011.31 1010.35
1017.98 1017.92 1017.97 1017.34 1016.48 1016.81 1016.79 1016.30 1015.38 1014.13 1014.42 1014.15 1014.15 1014.41 1014.47 1014.42 1014.43 1014.61 1014.41 1014.44 1014.54 1014.10 1013.77 1013.84 1013.81 1014.01 1014.08 1013.06 1012.75 1012.58 1011.77 1011.92 1011.71 1011.72 1011.70 1012.45 1012.62 1013.91 1014.87 1014.67 1014.24 1013.22 1012.74 1012.19 1011.47
1017.75 1017.63 1017.43 1017.18 1016.94 1016.79 1016.30 1015.25 1014.02 1013.55 1013.64 1014.30 1014.52 1014.72 1014.54 1014.92 1014.91 1014.87 1014.73 1014.72 1015.30 1015.25 1014.70 1014.34 1013.65 1014.06 1014.20 1014.13 1013.99 1013.76 1013.74 1013.80 1013.63 1013.17 1012.97 1012.90 1013.16 1014.35 1015.19 1014.41 1014.09 1013.66 1013.53 1013.12 1012.43
1017.61 1017.03 1016.65 1016.60 1016.97 1016.83 1015.53 1013.83 1012.79 1013.06 1013.49 1014.00 1014.64 1014.56 1014.81 1015.15 1015.14 1014.91 1015.03 1015.19 1015.56 1015.72 1015.47 1015.03 1014.33 1014.42 1014.65 1014.58 1014.78 1013.89 1014.12 1015.15 1014.70 1014.67 1013.79 1013.09 1012.60 1014.14 1014.43 1013.75 1013.81 1013.74 1013.67 1013.70 1013.25
1016.90 1016.77 1016.40 1016.62 1016.62 1016.19 1014.84 1013.19 1013.01 1013.39 1013.78 1014.12 1013.98 1014.51 1014.43 1014.88 1014.99 1015.00 1015.23 1015.65 1015.76 1016.10 1016.22 1015.97 1015.29 1014.56 1014.64 1014.82 1014.79 1014.48 1015.10 1014.74 1014.41 1014.22 1013.04 1012.05 1012.41 1013.99 1013.94 1013.74 1013.98 1013.96 1014.19 1014.59 1014.48
1016.72 1016.26 1016.55 1016.74 1016.47 1015.35 1013.74 1012.99 1013.18 1013.54 1013.78 1014.04 1014.07 1014.39 1014.61 1014.88 1015.04 1015.12 1015.37 1015.94 1016.08 1016.19 1016.40 1016.33 1016.20 1014.60 1014.79 1014.42 1014.47 1014.41 1014.31 1014.52 1014.62 1014.30 1013.49 1012.24 1012.49 1013.62 1013.89 1014.39 1014.45 1014.67 1014.95 1015.31 1015.28
1016.19 1016.16 1016.44 1016.61 1015.77 1014.63 1013.34 1013.11 1013.16 1013.50 1014.09 1014.20 1014.39 1014.48 1014.67 1015.02 1015.13 1015.18 1015.39 1015.79 1016.42 1016.47 1016.24 1016.59 1016.19 1014.80 1014.22 1014.72 1015.09 1014.91 1014.70 1014.62 1014.21 1013.93 1013.63 1013.36 1012.57 1013.48 1013.99 1014.62 1014.81 1015.05 1015.37 1015.79 1015.89
1015.19 1015.56 1016.28 1016.16 1014.28 1013.59 1013.32 1013.19 1013.20 1013.51 1013.72 1014.10 1014.33 1014.62 1015.03 1015.09 1015.37 1015.37 1015.80 1016.29 1016.63 1016.73 1016.57 1016.57 1016.13 1014.92 1014.18 1014.80 1014.91 1014.73 1014.88 1015.04 1014.84 1014.48 1013.07 1012.64 1012.15 1013.42 1013.91 1014.30 1015.04 1015.38 1015.51 1016.08 1016.14
1014.33 1014.72 1015.47 1015.18 1014.11 1012.73 1012.46 1012.57 1012.87 1013.32 1013.54 1013.90 1014.32 1014.77 1015.10 1015.30 1015.44 1015.47 1015.73 1016.39 1016.73 1016.93 1017.23 1016.86 1016.21 1015.53 1014.74 1014.40 1014.91 1014.55 1014.72 1014.71 1014.62 1013.63 1012.61 1012.23 1012.22 1012.78 1013.71 1014.21 1014.85 1015.65 1015.89 1016.19 1016.49
1013.08 1011.91 1011.42 1012.63 1012.61 1012.35 1011.90 1011.60 1012.20 1012.85 1013.33 1013.68 1014.38 1014.30 1014.65 1015.19 1015.47 1015.34 1015.72 1016.23 1016.90 1017.06 1017.30 1017.00 1016.04 1015.78 1015.13 1014.85 1014.76 1014.36 1014.29 1014.27 1014.12 1013.29 1012.67 1012.28 1012.45 1012.65 1013.43 1014.10 1014.76 1015.46 1016.05 1016.28 1016.57
1011.20 1011.18 1011.90 1010.83 1011.09 1011.63 1011.50 1010.99 1011.15 1011.95 1012.39 1013.04 1013.37 1013.66 1014.27 1014.37 1014.42 1014.66 1015.28 1015.64 1016.09 1016.99 1016.99 1017.30 1016.27 1016.03 1014.67 1014.56 1014.53 1013.83 1013.53 1013.64 1013.48 1013.16 1012.69 1012.33 1012.25 1012.66 1013.55 1014.16 1014.70 1015.11 1015.71 1016.33 1016.91
1010.73 1010.71 1010.17 1010.28 1010.18 1010.42 1009.81 1010.03 1010.32 1011.07 1011.97 1012.06 1012.46 1013.44 1014.18 1013.90 1014.40 1014.94 1015.39 1015.55 1016.00 1016.32 1016.62 1017.04 1016.60 1016.01 1014.21 1014.22 1013.69 1012.56 1012.02 1012.47 1012.50 1012.33 1011.91 1011.72 1011.79 1012.70 1013.35 1013.78 1014.19 1014.78 1015.41 1015.97 1016.72
Wind_Speed
9 10 9 10 11 11 11 11 11 12 12 12 12 12 13 13 10 3 6 4 5 9 7 2 2 3 2 3 0 2 6 8 11 9 10 4 6 3 2 8 2 4 4 5 12
9 9 10 11 11 11 11 11 12 12 12 10 11 13 12 10 3 8 3 3 5 8 5 7 4 1 3 2 2 6 5 5 5 9 10 10 12 12 8 11 9 6 2 2 14
9 10 10 11 12 12 12 12 12 12 11 10 10 11 11 7 3 5 1 2 5 4 3 3 2 1 2 1 1 2 6 3 10 10 12 14 14 14 15 17 16 13 11 7 13
11 11 12 13 13 13 13 12 12 12 10 9 9 9 8 4 1 3 0 4 5 3 3 4 2 1 1 1 1 7 5 7 7 7 8 14 14 14 14 16 16 17 15 8 14
11 12 13 14 14 14 13 13 12 11 10 9 9 7 5 3 4 3 1 3 2 2 6 6 6 2 1 2 3 6 6 6 10 12 13 13 14 17 15 14 15 15 11 12 13
12 13 14 14 15 15 14 13 12 11 10 9 7 7 3 3 2 1 3 2 3 3 2 4 5 4 1 3 5 6 10 13 9 9 8 10 11 4 7 3 7 9 13 14 15
11 13 15 15 15 14 14 14 13 10 8 5 5 4 3 4 0 2 2 1 1 2 2 1 3 5 3 3 3 7 9 10 1 6 9 4 12 10 4 6 8 8 7 7 11
12 14 15 15 16 14 13 11 6 2 2 2 4 3 1 2 3 1 1 1 1 2 0 1 1 2 4 4 3 5 6 8 7 5 1 5 13 5 7 7 11 13 12 6 7
13 15 16 18 16 14 10 5 6 5 3 2 3 4 2 2 2 3 3 3 0 2 2 3 2 3 3 5 2 1 9 13 10 6 6 7 13 8 14 13 13 13 13 9 8
14 14 15 17 17 13 4 1 2 2 3 2 1 4 2 3 4 4 1 2 2 2 4 1 2 5 1 8 8 12 13 9 12 8 12 14 16 15 15 16 14 14 13 10 9
12 14 15 17 17 10 2 3 4 4 1 3 4 3 3 6 2 2 3 3 1 1 6 3 4 6 9 6 10 12 12 13 11 8 11 9 14 6 12 10 10 10 10 9 8
12 13 15 16 15 4 2 4 3 4 4 1 1 4 2 3 3 4 7 5 3 5 6 5 3 6 8 7 9 11 11 12 3 5 5 15 5 4 11 10 10 13 11 10 10
12 13 14 17 12 1 7 4 2 2 2 3 1 2 1 3 3 5 8 5 4 3 6 5 4 7 8 11 13 9 10 13 11 10 3 14 7 4 17 14 15 13 12 10 10
10 13 16 18 1 1 3 1 1 2 5 4 2 2 2 2 2 3 4 3 2 4 6 3 2 6 9 10 10 9 14 11 5 5 7 11 4 5 20 20 20 17 17 14 12
9 11 14 10 2 1 3 2 3 4 5 4 3 2 2 2 4 4 3 2 5 5 4 5 5 7 8 11 9 10 13 4 2 3 6 15 5 11 21 20 27 23 20 16 15
8 10 12 4 1 3 1 4 4 5 3 5 1 2 3 4 2 6 3 3 1 2 2 4 2 3 5 15 5 16 5 3 3 3 3 7 6 10 13 18 22 22 17 15 13
7 8 8 3 1 3 3 4 5 6 2 5 2 2 1 3 2 5 4 7 7 6 7 6 2 1 4 10 2 16 11 2 2 3 6 8 7 6 15 21 16 15 15 14 13
8 8 3 3 2 3 3 5 7 2 3 3 2 2 2 3 2 3 1 2 4 4 4 6 3 6 10 4 7 8 7 4 3 6 6 9 10 6 14 12 15 16 14 15 15
6 2 2 2 5 3 5 5 2 3 5 7 3 3 3 2 2 1 2 2 3 6 7 6 2 2 1 3 5 5 5 3 1 3 5 3 12 4 15 16 18 19 18 17 16
1 2 2 4 5 4 5 3 4 3 6 3 5 3 4 3 3 1 1 2 2 2 2 2 6 2 2 3 3 5 1 2 2 6 6 5 11 8 16 17 16 19 18 16 15
2 3 4 3 4 4 7 4 4 5 5 5 5 5 3 3 2 2 2 3 3 2 0 1 3 2 4 2 5 1 2 3 2 3 5 7 7 5 8 11 13 14 13 13 13
3 4 3 3 6 2 7 5 5 8 3 3 3 3 5 6 4 4 3 2 2 0 1 2 4 6 3 4 3 3 2 4 4 2 1 4 4 5 5 6 8 9 11 11 10
4 2 3 4 7 7 3 3 6 7 7 7 7 3 2 6 4 4 5 4 4 2 0 3 2 6 5 6 4 3 1 1 3 3 3 4 5 4 3 4 6 7 8 9 11
5 7 4 5 2 8 8 6 7 4 6 4 5 5 4 5 4 5 6 4 3 2 2 4 3 7 7 8 5 8 4 8 5 5 3 3 5 2 3 3 5 4 6 7 10
6 7 8 9 11 10 11 10 12 8 3 6 3 7 7 5 4 5 4 4 3 2 2 4 5 4 10 15 14 15 15 11 11 9 6 3 4 2 3 4 6 5 4 7 9
8 7 3 8 7 19 13 12 14 8 13 8 8 13 10 7 7 7 7 5 3 5 4 2 2 3 7 4 4 9 12 11 11 10 12 10 9 3 6 5 6 7 7 8 8
5 2 5 9 10 12 16 19 15 12 9 6 15 8 12 14 4 6 1 4 4 5 7 4 2 3 4 4 13 9 4 10 7 7 5 5 3 9 8 8 8 9 8 9 10
Wind_Direction
324 321 323 329 328 330 328 323 328 335 327 336 336 335 342 330 304 213 43 12 325 320 321 209 66 87 152 122 186 219 242 249 255 258 258 218 250 182 315 270 271 287 304 44 139
331 323 335 337 330 327 325 323 334 322 318 323 340 341 323 323 275 41 44 288 315 343 337 7 29 141 116 125 166 237 246 273 294 280 272 276 275 274 277 261 264 256 192 147 158
333 339 338 340 330 327 322 327 317 312 310 333 335 314 313 297 241 31 119 314 349 342 9 353 341 320 82 186 144 191 265 310 267 273 278 276 273 273 271 264 271 274 295 179 183
344 340 346 341 330 326 324 316 310 304 312 321 307 301 311 237 41 46 85 2 352 336 358 353 356 161 160 214 206 258 251 273 284 280 282 275 288 273 269 275 275 272 273 233 208
348 344 348 337 329 323 319 312 305 300 303 298 292 312 263 136 72 64 318 0 6 345 25 3 358 324 313 320 265 234 310 287 277 283 277 274 270 273 278 271 261 258 269 245 227
347 345 346 336 329 326 319 309 303 297 288 284 291 304 258 102 64 358 357 324 14 358 26 347 351 335 325 307 287 330 305 291 288 290 272 275 280 250 246 299 262 250 261 254 238
344 350 341 335 334 330 324 318 305 284 273 270 284 276 245 61 2 310 309 349 326 324 331 18 327 290 318 291 326 294 291 300 284 297 292 274 254 231 244 278 268 257 264 284 262
350 348 337 341 340 333 337 330 328 254 178 209 266 252 350 103 330 252 268 152 139 124 339 43 266 301 306 316 238 302 262 333 350 323 62 267 283 287 298 297 293 292 278 278 287
350 341 341 342 336 338 340 346 62 87 129 197 231 275 131 132 267 15 318 315 68 92 99 116 241 323 261 325 259 200 328 329 334 312 317 274 299 302 313 302 293 285 279 275 278
344 333 339 336 336 333 351 276 16 232 191 233 223 231 133 340 326 337 326 299 285 191 182 273 257 262 234 348 351 320 321 319 319 324 315 297 291 315 331 322 303 286 272 274 281
339 334 337 334 334 332 286 225 206 158 78 357 68 342 339 338 253 42 343 285 244 219 359 40 288 11 350 339 307 304 305 312 329 341 318 336 318 358 356 10 2 356 312 297 275
339 336 336 333 331 337 20 61 41 1 137 133 293 277 265 325 266 41 336 328 328 342 325 213 341 350 317 303 306 311 309 343 337 10 292 344 68 29 19 21 4 345 336 317 302
339 336 336 331 319 340 69 66 330 226 227 149 272 287 349 271 340 2 355 332 326 307 350 301 7 324 310 323 335 342 335 334 309 319 215 342 188 0 23 9 356 356 336 321 304
335 335 338 328 198 44 66 51 238 237 208 142 171 129 229 302 153 353 28 311 248 322 333 285 6 335 319 325 343 315 356 305 280 294 16 14 329 37 358 352 353 348 342 333 313
328 338 340 355 76 106 76 206 154 235 247 117 127 33 10 349 335 62 18 272 316 326 277 48 331 342 320 343 333 316 336 298 247 279 273 19 279 26 3 348 340 339 332 332 318
321 334 336 245 182 94 197 177 206 223 218 157 138 336 206 37 67 323 352 39 322 292 249 299 328 275 319 316 298 315 323 256 237 272 312 16 331 7 353 332 324 324 347 340 333
308 319 312 285 89 142 174 210 206 246 123 164 150 33 62 23 102 8 19 42 23 325 14 323 129 299 317 317 176 357 353 337 289 357 357 4 307 38 347 331 322 348 359 355 354
307 311 151 270 187 188 216 214 231 79 181 100 145 137 189 338 105 15 312 72 76 355 316 350 164 7 359 6 321 342 359 27 346 348 326 331 352 15 342 332 10 14 14 13 8
302 260 225 137 207 245 238 223 282 178 137 160 148 194 157 184 304 304 35 38 31 14 2 336 294 338 3 333 327 15 14 8 291 173 267 5 28 58 341 8 12 11 10 17 15
285 289 188 137 165 229 245 253 191 165 131 172 207 240 188 168 208 349 199 119 159 54 321 65 286 170 352 239 104 355 55 239 89 0 343 23 41 34 336 356 4 11 11 14 18
232 221 102 170 216 215 233 224 184 179 157 179 178 162 201 188 210 168 143 156 204 111 136 239 269 122 248 16 339 160 49 47 287 332 334 317 60 9 333 348 357 13 21 15 19
160 219 117 196 195 211 217 194 165 161 169 142 145 156 197 176 185 199 206 255 159 206 330 83 312 283 310 1 267 307 36 14 325 20 305 310 70 19 3 350 0 16 22 29 30
184 144 139 240 203 205 174 195 196 156 182 170 171 186 168 190 209 196 205 122 143 229 59 144 173 288 174 173 164 278 338 27 327 275 255 314 48 49 27 10 48 27 36 44 45
160 179 165 204 289 227 181 193 190 195 158 151 137 141 152 196 226 179 196 166 168 164 64 194 230 262 294 328 322 277 248 285 269 272 2 257 338 72 80 69 65 43 60 64 72
196 213 177 183 209 207 199 186 180 175 190 167 156 197 167 171 195 213 197 172 156 161 142 245 261 256 269 278 279 270 271 270 239 261 272 64 277 345 118 134 107 99 89 96 90
181 177 220 160 162 197 196 198 193 167 165 191 217 192 183 183 205 185 179 202 194 158 172 186 257 285 281 259 240 264 257 258 248 255 256 268 268 164 128 141 150 134 131 116 108
169 105 208 161 162 171 207 203 195 160 201 193 202 149 196 218 160 71 44 132 163 172 168 219 257 292 280 279 299 257 271 207 198 217 231 233 103 164 170 176 171 158 156 143 136